カタログに戻る

GOES 19

運用中気象GEO
NORAD 60133·PAYLOAD·🇺🇸 United States

打ち上げ Jun 25, 2024 から Cape Canaveral Space Force Station

Loading…

TLE

最新Source: Space-Track

元期: Sep 14, 2026, 11:44 UTC

1 60133U 24119A   26257.48894609 -.00000257  00000-0  00000-0 0  9995
2 60133   0.0268  24.1370 0000330 231.4080 198.7486  1.00273710  7867

AllMySatでGOES 19をリアルタイム追跡

Download on the App Store